Abilene, TX

5:07 AM CDT on August 29, 2016 (GMT -0500)
Abilene Regional

Weather History for KABI - April, 2014

Change the Weather History Date:

Sunday, April 13, 2014

  Actual Average Record
Temperature  
Mean Temperature 71 °F 64 °F  
Max Temperature 90 °F 77 °F 98 °F (1972)
Min Temperature 52 °F 51 °F 27 °F (1997)
Degree Days  
Heating Degree Days 0 4  
Month to date heating degree days 41 67  
Since 1 July heating degree days 2743 2498  
Cooling Degree Days 6 3  
Month to date cooling degree days 77 31  
Year to date cooling degree days 121 65  
Growing Degree Days 27 (Base 50)    
Moisture  
Dew Point 51 °F    
Average Humidity 43    
Maximum Humidity 78    
Minimum Humidity 7    
Precipitation  
Precipitation 0.04 in 0.05 in 1.75 in (1927)
Month to date precipitation 0.21 0.60  
Year to date precipitation 1.37 4.72  
Sea Level Pressure  
Sea Level Pressure 29.60 in    
Wind  
Wind Speed 19 mph (SSW)    
Max Wind Speed 30 mph    
Max Gust Speed 41 mph    
Visibility 10 miles    
Events Rain , Hail    
T = Trace of Precipitation, MM = Missing Value Source: NWS Daily Summary

Daily Weather History Graph

Daily Weather History Graph

Search for Another Location

Airport or City:

Trip Planner

Search our weather history database for the weather conditions in past years. The results will help you decide how hot, cold, wet, or windy it might be!

Date:

Astronomy

Apr. 13, 2014 Rise Set
Actual Time 7:11 AM CDT 8:07 PM CDT
Civil Twilight 6:46 AM CDT 8:32 PM CDT
Nautical Twilight 6:17 AM CDT 9:02 PM CDT
Astronomical Twilight 5:46 AM CDT 9:32 PM CDT
Moon 6:50 PM CDT (4/13) 6:05 AM CDT (4/13)
Length of Visible Light 13h 45m
Length of Day
12h 55m
Waxing Gibbous, 97% of the Moon is Illuminated
Apr 13
Waxing Gibbous
Apr 15
Full
Apr 22
Last Quarter
Apr 29
New
May 6
First Quarter

Hourly Weather History & Observations

Time (CDT) Temp. Heat Index Dew Point Humidity Pressure Visibility Wind Dir Wind Speed Gust Speed Precip Events Conditions
12:52 AM 78.1 °F - 55.9 °F 46% 29.66 in 10.0 mi SSW 18.4 mph 28.8 mph N/A   Clear
1:52 AM 77.0 °F - 55.0 °F 47% 29.66 in 10.0 mi SSW 16.1 mph 28.8 mph N/A   Scattered Clouds
2:52 AM 75.9 °F - 55.0 °F 48% 29.63 in 10.0 mi South 18.4 mph 24.2 mph N/A   Clear
3:52 AM 73.9 °F - 57.0 °F 55% 29.61 in 10.0 mi South 18.4 mph - N/A   Clear
4:52 AM 73.0 °F - 61.0 °F 66% 29.58 in 10.0 mi South 19.6 mph 28.8 mph N/A   Clear
5:52 AM 72.0 °F - 61.0 °F 68% 29.57 in 10.0 mi South 16.1 mph 23.0 mph N/A   Clear
6:52 AM 71.1 °F - 61.0 °F 70% 29.60 in 10.0 mi SSW 26.5 mph 35.7 mph N/A   Clear
7:52 AM 70.0 °F - 62.1 °F 76% 29.65 in 10.0 mi SSW 19.6 mph 36.8 mph N/A   Partly Cloudy
8:52 AM 69.1 °F - 60.1 °F 73% 29.65 in 10.0 mi South 21.9 mph 32.2 mph 0.00 in Rain Light Rain
9:52 AM 71.1 °F - 57.0 °F 61% 29.65 in 10.0 mi South 18.4 mph 26.5 mph 0.00 in   Overcast
10:52 AM 73.0 °F - 61.0 °F 66% 29.63 in 10.0 mi South 28.8 mph 36.8 mph N/A   Partly Cloudy
11:52 AM 78.1 °F - 57.9 °F 50% 29.62 in 10.0 mi SSW 21.9 mph 31.1 mph N/A   Scattered Clouds
12:52 PM 80.1 °F 80.9 °F 60.1 °F 50% 29.60 in 10.0 mi South 19.6 mph 29.9 mph N/A   Clear
1:52 PM 82.0 °F 81.6 °F 55.9 °F 41% 29.57 in 10.0 mi South 20.7 mph 29.9 mph N/A   Clear
2:36 PM 73.9 °F - 60.1 °F 62% 29.63 in 10.0 mi South 11.5 mph 27.6 mph 0.04 in Hail Hail
2:52 PM 77.0 °F - 60.1 °F 56% 29.55 in 10.0 mi South 24.2 mph 32.2 mph 0.04 in   Scattered Clouds
3:52 PM 80.1 °F 80.6 °F 57.9 °F 47% 29.52 in 10.0 mi SSE 12.7 mph 24.2 mph N/A   Clear
4:52 PM 87.1 °F - 48.9 °F 27% 29.48 in 10.0 mi SSW 21.9 mph 28.8 mph N/A   Clear
5:23 PM 90.0 °F - 17.1 °F 7% 29.56 in 10.0 mi West 26.5 mph 40.3 mph N/A   Clear
5:52 PM 89.1 °F - 19.0 °F 8% 29.48 in 10.0 mi West 26.5 mph 38.0 mph N/A   Clear
7:52 PM 82.0 °F - 21.0 °F 10% 29.52 in 10.0 mi WSW 10.4 mph - N/A   Clear
8:52 PM 72.0 °F - 54.0 °F 53% 29.57 in 10.0 mi SSE 16.1 mph - N/A   Clear
9:52 PM 71.1 °F - 55.0 °F 57% 29.60 in 10.0 mi Variable 5.8 mph 19.6 mph N/A   Clear
10:52 PM 64.9 °F - 43.0 °F 45% 29.67 in 10.0 mi NNE 11.5 mph 21.9 mph N/A   Clear
11:52 PM 59.0 °F - 41.0 °F 51% 29.72 in 10.0 mi North 15.0 mph 26.5 mph N/A   Clear